Home   Weather   Minamisōma   Past weeks

Flag for Japan Past Weather in Minamisōma, Japan — Yesterday and Last 2 Weeks

Now
75 °F

Partly sunny.


Feels Like: 75 °F
Forecast: 62 / 70 °F
Wind: 1 mph from North

Location: Sendai Airport

Current Time: Sep 28, 2016 at 5:45:17 PM

Latest Report: Sep 28, 2016 at 5:00 PM


Visibility: N/A

Pressure: 29.83 "Hg

Humidity: 89%

Dew Point: 72 °F

Location of MinamisōmaLocation

Past Weather in Minamisōma — Graph

°F

Minamisōma Temperature Yesterday

Maximum temperature yesterday: 75 °F (at 1:00 PM)
Minimum temperature yesterday: 70 °F (at 6:00 AM)
Average temperature yesterday: 72 °F

High & Low Weather Summary for the Past Weeks

 TemperatureHumidityPressure
High79 °F (Sep 15, 11:00 AM)100% (Sep 24, 5:45 AM)30.21 "Hg (Sep 24, 5:45 AM)
Low61 °F (Sep 20, 6:00 AM)49% (Sep 21, 10:00 AM)29.77 "Hg (Sep 18, 1:00 PM)
Average70 °F84%30.00 "Hg
* Reported Sep 13 4:00 PM — Sep 28 4:00 PM, Minamisōma, Weather by CustomWeather, © 2016

Note: Actual official high and low records may vary slightly from our data, if they occured in-between our weather recording intervals... More about our weather records

Advertising

Minamisōma Weather History for the Previous 24 Hours

Scroll right to see more
 ConditionsComfort  
Time TempWeatherWind HumidityBarometerVisibility
4:00 PM
Wed, Sep 28
75 °FPartly sunny.2 mph89%29.83 "HgN/A
3:00 PM77 °FFog.2 mph83%29.83 "HgN/A
2:00 PM75 °FSprinkles. Partly sunny.3 mph89%29.83 "HgN/A
1:00 PM77 °FSprinkles. Broken clouds.3 mph83%29.83 "Hg5 mi
12:00 PM75 °FSprinkles. Fog.2 mph89%29.86 "Hg2 mi
11:00 AM75 °FLight rain. Fog.3 mph89%29.86 "Hg3 mi
10:00 AM75 °FLight rain. Partly sunny.3 mph89%29.89 "Hg4 mi
9:00 AM73 °FLight rain. Fog.2 mph94%29.89 "Hg2 mi
8:00 AM73 °FLight rain. Fog.1 mph89%29.89 "Hg2 mi
7:00 AM72 °FFog.3 mph94%29.89 "Hg1 mi
6:04 AM70 °FFog.1 mph94%29.89 "Hg0 mi
6:00 AM70 °FFog.1 mph94%29.89 "Hg1 mi
5:47 AM70 °FFog.2 mph94%29.89 "Hg1 mi
9:00 PM
Tue, Sep 27
72 °FPassing clouds.2 mph88%29.98 "HgN/A
8:00 PM72 °FPassing clouds.3 mph88%30.01 "HgN/A
7:00 PM72 °FPartly cloudy.2 mph88%30.01 "HgN/A
6:00 PM72 °FPartly cloudy.3 mph88%30.01 "HgN/A
5:00 PM72 °FBroken clouds.5 mph88%30.01 "HgN/A
Weather by CustomWeather, © 2016

See weather overviewHow to use our weather pages